Location: Stoke Bliss
(52.2667°N, 2.5167°W)
Time: 14:21:03
(UTC+00:00)

Envisat - Pass Details

Date: 07 December 2021
Orbit: 764 x 766 km, 98.2° (Epoch: 28 January)

Event Time Altitude Azimuth Distance (km) Brightness Sun altitude
Rises 05:17:53 0° 15° (NNE) 3,248 6.4 -24.3°
Reaches altitude 10° 05:20:13 10° 17° (NNE) 2,317 5.6 -23.9°
Maximum altitude 05:25:20 78° 104° (ESE) 789 3.1 -23.2°
Drops below altitude 10° 05:30:25 10° 191° (S) 2,299 5.4 -22.4°
Sets 05:32:42 0° 193° (SSW) 3,220 6.2 -22.0°
